Home   Weather   Kawasaki   Past weeks
Flag for Japan

Past Weather in Kawasaki, Japan — Yesterday and Last 2 Weeks

Now
46 °F

Clear.


Feels Like: 44 °F
Forecast: 52 / 42 °F
Wind: 6 mph from Northeast

Location: Tokyo International Airport

Current Time: Jan 21, 2019 at 10:50:44 pm

Latest Report: Jan 21, 2019 at 10:00 pm


Visibility: 10 mi

Pressure: 29.80 "Hg

Humidity: 43%

Dew Point: 25 °F

Location of KawasakiLocation

Past Weather in Kawasaki — Graph

°F

Kawasaki Temperature Yesterday

Maximum temperature yesterday: 55 °F (at 4:00 pm)
Minimum temperature yesterday: 39 °F (at 3:30 am)
Average temperature yesterday: 46 °F

High & Low Weather Summary for the Past Weeks

 TemperatureHumidityPressure
High55 °F (Jan 11, 1:30 pm)87% (Jan 12, 7:30 pm)30.27 "Hg (Jan 12, 7:30 pm)
Low34 °F (Jan 11, 3:00 am)17% (Jan 18, 1:30 pm)29.53 "Hg (Jan 20, 3:30 pm)
Average45 °F50%30.00 "Hg
* Reported Jan 6 9:00 pm — Jan 21 9:30 pm, Kawasaki. Weather by CustomWeather, © 2019

Note: Actual official high and low records may vary slightly from our data, if they occured in-between our weather recording intervals... More about our weather records

Advertising

Kawasaki Weather History for the Previous 24 Hours

Scroll right to see more
 ConditionsComfort  
Time TempWeatherWind HumidityBarometerVisibility
9:30 pm
Mon, Jan 21
46 °FPassing clouds.5 mph40%29.80 "HgN/A
9:00 pm46 °FPassing clouds.5 mph37%29.80 "HgN/A
8:30 pm46 °FPassing clouds.9 mph37%29.80 "HgN/A
8:00 pm46 °FPassing clouds.7 mph40%29.80 "HgN/A
7:30 pm46 °FPassing clouds.8 mph40%29.80 "HgN/A
7:00 pm46 °FPassing clouds.9 mph40%29.80 "HgN/A
6:30 pm48 °FPassing clouds.8 mph40%29.80 "HgN/A
6:00 pm48 °FPassing clouds.7 mph40%29.80 "HgN/A
5:30 pm48 °FPassing clouds.7 mph40%29.80 "HgN/A
5:00 pm48 °FPassing clouds.7 mph37%29.80 "HgN/A
4:30 pm48 °FPassing clouds.7 mph40%29.80 "HgN/A
4:00 pm48 °FPassing clouds.8 mph32%29.80 "HgN/A
3:30 pm48 °FPassing clouds.7 mph37%29.80 "HgN/A
3:00 pm48 °FPassing clouds.8 mph34%29.80 "HgN/A
2:30 pm48 °FPassing clouds.9 mph37%29.80 "HgN/A
2:00 pm48 °FPassing clouds.8 mph32%29.77 "HgN/A
1:30 pm48 °FPassing clouds.8 mph27%29.77 "HgN/A
1:00 pm48 °FPassing clouds.8 mph29%29.80 "HgN/A
12:30 pm48 °FPassing clouds.9 mph32%29.80 "HgN/A
11:30 am48 °FPassing clouds.9 mph32%29.83 "HgN/A
11:00 am46 °FPassing clouds.13 mph37%29.83 "HgN/A
10:00 am46 °FPassing clouds.18 mph40%29.86 "HgN/A
9:30 am45 °FPassing clouds.18 mph37%29.86 "HgN/A
9:00 am43 °FPassing clouds.18 mph36%29.86 "HgN/A
8:30 am43 °FPassing clouds.14 mph46%29.86 "HgN/A
8:00 am41 °FPassing clouds.16 mph45%29.86 "HgN/A
7:30 am41 °FPassing clouds.20 mph42%29.86 "HgN/A
7:00 am39 °FPassing clouds.22 mph45%29.83 "HgN/A
6:30 am39 °FPassing clouds.21 mph45%29.83 "HgN/A
6:02 am39 °FPassing clouds.20 mph42%29.80 "HgN/A
5:30 am39 °FPassing clouds.24 mph45%29.77 "HgN/A
5:08 am39 °FPassing clouds.20 mph45%29.77 "HgN/A
5:00 am39 °FPassing clouds.21 mph42%29.77 "HgN/A
4:30 am41 °FPassing clouds.24 mph39%29.77 "HgN/A
4:00 am41 °FPassing clouds.25 mph39%29.74 "HgN/A
3:30 am41 °FPassing clouds.25 mph42%29.74 "HgN/A
3:00 am43 °FPassing clouds.28 mph39%29.71 "HgN/A
2:30 am43 °FPassing clouds.25 mph42%29.71 "HgN/A
2:05 am43 °FPassing clouds.23 mph46%29.71 "HgN/A
2:00 am43 °FPassing clouds.23 mph42%29.71 "HgN/A
1:30 am43 °FPassing clouds.22 mph46%29.71 "HgN/A
1:13 am43 °FPassing clouds.20 mph42%29.71 "HgN/A
1:00 am45 °FPassing clouds.22 mph42%29.71 "HgN/A
12:32 am45 °FPassing clouds.23 mph49%29.71 "HgN/A
12:30 am45 °FPassing clouds.24 mph46%29.71 "HgN/A
12:06 am45 °FPassing clouds.23 mph46%29.68 "HgN/A
11:30 pm
Sun, Jan 20
46 °FPassing clouds.25 mph46%29.68 "HgN/A
11:00 pm46 °FPassing clouds.24 mph50%29.68 "HgN/A
10:42 pm48 °FPassing clouds.17 mph54%29.68 "HgN/A
10:00 pm50 °FPassing clouds.3 mph50%29.65 "HgN/A
Weather by CustomWeather, © 2019

See weather overview